Content
SEND FEEDBACK

Daily
Averages
Monthly
Summary
United States of America

CHICAGO, ILLINOIS


Home > North America > United States > Illinois
Elevation: 674 feet     Latitude: 41 59N     Longitude: 087 54W

WEATHER
 
SELECT A DAY
Number of Records: 194,820;   Date Range: 7/8/95 - 7/23/14
 
SHARE

PRINT THIS DATA

[ ← Previous Day ]
WEATHER ALMANAC - SEPTEMBER 25, 2013
[ Next Day → ]
[ °C ]   °F
Weather ElementAverageHighLow
Temperature59.6 °F69.1 °F (2:52 pm)50 °F (5:52 am)
Dewpoint50.8 °F55.9 °F (8:52 am)46.9 °F (5:52 am)
Humidity74.1 %90 % (1:52 am)54 % (12:52 pm)
Barometer29.98 in30.01 in (10:52 am)29.96 in (1:52 am)
Wind Speed3.3 mph10.4 mph (3:52 pm)
Weather ElementAverage
Visibility8.6 mi
Wind DirectionNNE (35.7 °)

Weather ElementTotal
Precipitation---
Heating Degree Days5.5 (Base 65)
Growing Degree Days9.6 (Base 50)
Averaged from 23 records on September 25, 2013
WEATHER CONDITIONS BREAKOUT
WIND DIRECTION BREAKOUT
WEATHER BY HOUR - SEPTEMBER 25, 2013
[ °C ]   °F
Local TimeTemperatureDewpointHumidityBarometerVisibilityWind DirectionWind SpeedGust SpeedPrecipitationEventsConditions
1:52 AM54.0 °F51.1 °F90 %29.96 in6.0 miCalmClear
2:52 AM52.0 °F48.9 °F89 %29.96 in8.0 miCalmClear
3:52 AM51.1 °F48.0 °F89 %29.96 in9.0 miCalmClear
4:52 AM52.0 °F48.9 °F89 %29.96 in6.0 miCalmClear
5:52 AM50.0 °F46.9 °F89 %29.96 in6.0 miCalmClear
6:52 AM51.1 °F48.0 °F89 %29.98 in6.0 miCalmClear
7:52 AM55.0 °F51.1 °F86 %29.99 in7.0 miCalmClear
8:52 AM64.0 °F55.9 °F75 %29.99 in9.0 miNE (40°)3.5 mphClear
9:52 AM66.9 °F54.0 °F63 %30.00 in10.0 miENE (60°)8.1 mphClear
10:52 AM66.9 °F53.1 °F61 %30.01 in10.0 miENE (60°)9.2 mphPartly Cloudy
11:52 AM66.9 °F51.1 °F57 %30.00 in10.0 miENE (70°)9.2 mphScattered Clouds
12:52 PM66.9 °F50.0 °F54 %29.99 in10.0 miENE (70°)4.6 mphClear
1:52 PM68.0 °F51.1 °F55 %29.98 in10.0 miVariable3.5 mphClear
2:52 PM69.1 °F52.0 °F54 %29.97 in10.0 miNE (40°)6.9 mphClear
3:52 PM66.9 °F51.1 °F57 %29.97 in10.0 miNNE (30°)10.4 mphClear
4:52 PM66.0 °F52.0 °F60 %29.98 in10.0 miNNE (20°)8.1 mphClear
5:52 PM64.0 °F51.1 °F63 %29.99 in10.0 miENE (60°)4.6 mphClear
6:52 PM61.0 °F51.1 °F70 %29.98 in10.0 miNNE (30°)3.5 mphClear
7:52 PM57.9 °F51.1 °F78 %29.98 in10.0 miNNW (340°)3.5 mphClear
8:52 PM57.0 °F51.1 °F81 %29.98 in9.0 miCalmClear
9:52 PM55.9 °F51.1 °F84 %29.99 in8.0 miCalmClear
10:52 PM55.0 °F50.0 °F83 %29.99 in7.0 miCalmClear
11:52 PM53.1 °F50.0 °F89 %29.99 in7.0 miCalmClear
Hourly data recorded from KPWK, located miles away from Chicago, Illinois







STORIES FROM OUR PARTNERS